Location: La Trinit�
(48.1620°N, 3.4512°W)
Time: 18:34:33
(UTC+00:00)

ATLAS 5 CENTAUR R/B - Pass Details

Date: 08 May 2021
Orbit: 516 x 1141 km, 63.3° (Epoch: 02 May)

Event Time Altitude Azimuth Distance (km) Brightness Sun altitude
Rises 21:35:33 0° 316° (NW) 3,247 7.1 -16.0°
Reaches altitude 10° 21:37:50 10° 311° (NW) 2,408 5.9 -16.2°
Maximum altitude 21:43:18 54° 236° (SW) 1,106 2.8 -16.7°
Enters shadow 21:47:13 23° 169° (S) 1,948 3.6 -17.1°
